[[{"header":{"parameterUnit":"m.s-1","parameterCategory":1,"la1":30.2991,"la2":30.254,"lo1":-89.0895,"lo2":-89.0444,"dy":0.0017,"dx":0.0017,"nx":28,"ny":28,"refTime":"2023-09-06T09:00:00:Z","depth":0,"parameterNumber":2,"parameterNumberName":"U-component_of_WINDS"},"data":[0,0,0,0,0,0,0,0,0,0,0,0,0,0,0,0,0,0,0,0,0,0,0,0,0,0,0,0,0,0,0,0,0,0,0,0,0,0,0,0,0,0,0,0,0,0,0,0,0,0,0,0,0,0,0,0,0,0,2.6491,2.6492,0,2.6634,2.6635,2.6637,2.6591,2.6588,2.6585,2.6582,2.673,2.6736,2.6743,0,0,0,0,0,0,0,0,0,0,0,0,0,2.6178,2.6184,2.649,2.6492,2.6494,2.6633,2.6635,2.6637,2.6592,2.6588,2.6585,2.6581,2.6727,2.6735,2.6744,0,0,0,0,0,0,0,0,0,0,0,0,0,2.6316,2.6186,2.649,2.6488,2.6489,2.6633,2.6635,2.6638,2.6593,2.6588,2.6584,2.6579,2.6725,2.6735,2.6745,2.6899,0,0,2.6776,2.678,0,0,0,0,0,0,0,0,2.6309,2.6328,2.6487,2.6489,2.649,2.659,2.6579,2.6725,2.6594,2.6554,2.6582,2.6577,2.6687,2.67,2.6737,2.6906,2.6912,2.6777,2.6783,2.6787,2.679,0,0,0,0,0,0,0,2.6299,2.6322,2.6547,2.6489,2.6491,2.648,2.6495,2.6606,2.6644,2.6557,2.6554,2.6571,2.6687,2.6727,2.674,2.6914,2.6776,2.6785,2.6792,2.6795,2.7215,2.722,0,0,0,0,0,0,2.6288,2.6314,2.6542,2.6551,2.6386,2.6489,2.6506,2.6563,2.6643,2.6651,2.6575,2.6569,2.6712,2.6728,2.6745,2.6929,2.6787,2.6796,2.6802,2.721,2.7216,2.7222,0,0,0,0,0,0,2.6282,2.6309,2.6537,2.6432,2.646,2.65,2.6564,2.6568,2.6608,2.6657,2.6663,2.6609,2.6709,2.6731,2.686,2.6934,2.6801,2.681,2.7204,2.7212,2.7219,2.73,0,0,0,0,0,0,2.6273,2.6307,2.6366,2.6434,2.6466,2.665,2.6568,2.6574,2.6625,2.6618,2.669,2.6698,2.6707,2.6846,2.6871,2.6945,2.6818,2.7198,2.7207,2.7216,2.7291,2.7309,2.7325,0,0,0,0,0,2.6262,2.6384,2.6369,2.6397,2.654,2.6655,2.6673,2.6681,2.6631,2.6691,2.6722,2.6696,2.6922,2.6859,2.6887,2.6966,2.7193,2.7205,2.7216,2.7283,2.7306,2.7325,0,0,0,0,0,0,2.6325,2.6393,2.6377,2.6525,2.6584,2.6647,2.6722,2.6705,2.678,2.677,2.6777,2.6793,2.6926,2.6959,2.6888,2.7118,2.705,2.7068,2.7092,2.7114,2.713,2.7119,2.6827,0,0,0,0,0,2.6356,2.6443,2.6497,2.6622,2.6653,2.6682,2.6732,2.6733,2.6795,2.682,2.6861,2.6922,2.7006,2.7062,2.7143,2.7296,2.731,2.7364,2.7381,2.7394,2.7409,2.749,2.7514,2.7259,2.7259,2.7259,0,0,2.6421,2.6468,2.6523,2.6636,2.6682,2.6771,2.6704,2.6802,2.6868,2.6835,2.6959,2.6992,2.706,2.7202,2.7266,2.7233,2.7483,2.7409,2.742,2.7427,2.7505,2.7529,2.755,2.7267,2.7265,2.7264,0,0,2.6584,2.663,2.6738,2.6785,2.6855,2.6874,2.69,2.6965,2.6985,2.711,2.7087,2.7166,2.7312,2.7361,2.7405,2.7586,2.7564,2.7613,2.7702,2.7781,2.7801,2.7819,2.7882,2.7904,2.7627,2.7628,2.7628,0,2.6656,2.6789,2.6796,2.6895,2.6945,2.6919,2.7027,2.7073,2.7167,2.7201,2.7163,2.7345,2.739,2.7541,2.7585,2.7623,2.7651,2.7604,2.7798,2.7816,2.7832,2.7892,2.7916,2.7633,2.7632,2.7632,2.7631,0,2.6873,2.6966,2.7045,2.7135,2.7194,2.7298,2.7319,2.7378,2.7374,2.7396,2.7523,2.7575,2.7665,2.7702,2.7699,2.7853,2.783,2.7795,2.7726,2.7862,2.7918,2.7941,2.764,2.7638,2.7637,2.7636,0,0,2.708,2.7171,2.72,2.724,2.7315,2.7387,2.7489,2.7577,2.7626,2.7692,2.7776,2.79,2.7868,2.7918,2.7921,2.799,2.8128,2.7947,2.7948,2.7977,2.8299,2.8324,2.835,2.8114,2.8119,2.8122,2.8293,0,2.7249,2.7428,2.7436,2.7599,2.7684,2.766,2.7749,2.7804,2.7828,2.7904,2.793,2.8017,2.7969,2.7998,2.8067,2.8097,2.8193,2.8085,2.8193,2.8196,2.8174,2.838,2.8407,2.8565,2.8315,2.8319,2.8321,0,2.7469,2.754,2.7712,2.7773,2.7809,2.7889,2.7968,2.8042,2.8104,2.8116,2.8172,2.8164,2.8267,2.8196,2.8339,2.8265,2.831,2.8331,2.8338,2.8347,2.8266,2.8393,2.8616,2.8639,2.8357,2.8354,2.8351,0,2.7601,2.774,2.7859,2.7894,2.797,2.8026,2.806,2.8117,2.8169,2.8239,2.8272,2.8354,2.8398,2.8462,2.8476,2.8423,2.8618,2.8548,2.863,2.863,2.8671,2.8668,2.8902,2.8703,2.8702,2.8702,2.8701,0,2.7787,2.7893,2.7919,2.7993,2.811,2.8118,2.8233,2.8263,2.8314,2.8393,2.8378,2.8452,2.8467,2.8544,2.8556,2.8671,2.8691,2.8704,2.8705,2.8704,2.8702,2.8732,2.8721,2.8708,2.8707,2.8706,2.8705,0,2.7954,2.7976,2.8105,2.8165,2.8182,2.8266,2.8317,2.8387,2.8409,2.8509,2.8532,2.8567,2.8656,2.8677,2.8784,2.8792,2.8928,2.892,2.8906,2.8905,2.8985,2.8977,2.9246,2.9281,2.906,2.9062,2.9064,0,2.8071,2.8151,2.8219,2.827,2.8307,2.839,2.8442,2.8453,2.8508,2.8584,2.8645,2.8732,2.8803,2.8947,2.8982,2.9063,2.9056,2.9144,2.9068,2.9064,2.9055,2.9049,2.9056,2.9158,2.9161,2.9163,2.9164,0,2.8275,2.8282,2.8357,2.8437,2.8499,2.8562,2.8622,2.8665,2.8684,2.8747,2.8838,2.8892,2.9001,2.9088,2.9169,2.9204,2.9187,2.9188,2.9211,2.921,2.9198,2.9204,2.8944,2.9182,2.918,2.9179,2.9178,2.9177,2.8419,2.8489,2.8547,2.8631,2.8677,2.8734,2.8802,2.8832,2.8908,2.8996,2.8998,2.9097,2.9156,2.9263,2.9303,2.938,2.9353,2.9386,2.9395,2.9402,2.9408,2.9187,2.9395,2.9395,2.9394,2.9394,2.9394,0,2.8621,2.8657,2.8735,2.8819,2.8885,2.8863,2.8928,2.8985,2.9072,2.9128,2.9197,2.9301,2.9385,2.9426,2.9508,2.9562,2.9557,2.9584,2.9579,2.9587,2.9429,2.94,2.9587,2.9587,2.9587,2.9586,2.9586,2.9586,2.8734,2.885,2.8863,2.9001,2.9036,2.9132,2.9171,2.9222,2.9267,2.9383,2.9453,2.9478,2.9528,2.9614,2.969,2.9699,2.973,2.976,2.9766,2.9618,2.9598,2.9579,2.9552,2.9767,2.9767,2.9917,2.9918,2.9919]},{"header":{"parameterUnit":"m.s-1","parameterCategory":1,"la1":30.2991,"la2":30.254,"lo1":-89.0895,"lo2":-89.0444,"dy":0.0017,"dx":0.0017,"nx":28,"ny":28,"refTime":"2023-09-06T09:00:00:Z","depth":0,"parameterNumber":3,"parameterNumberName":"V-component_of_WINDS"},"data":[0,0,0,0,0,0,0,0,0,0,0,0,0,0,0,0,0,0,0,0,0,0,0,0,0,0,0,0,0,0,0,0,0,0,0,0,0,0,0,0,0,0,0,0,0,0,0,0,0,0,0,0,0,0,0,0,0,0,-0.3329,-0.3329,0,-0.335,-0.335,-0.3351,-0.3378,-0.3378,-0.3378,-0.3379,-0.3399,-0.34,-0.34,0,0,0,0,0,0,0,0,0,0,0,0,0,-0.3311,-0.3311,-0.3329,-0.3329,-0.3329,-0.335,-0.335,-0.3351,-0.3377,-0.3378,-0.3379,-0.3379,-0.3399,-0.34,-0.34,0,0,0,0,0,0,0,0,0,0,0,0,0,-0.3324,-0.3311,-0.3329,-0.3345,-0.3347,-0.335,-0.335,-0.3351,-0.3377,-0.3378,-0.3379,-0.3379,-0.3399,-0.34,-0.34,-0.3388,0,0,-0.34,-0.34,0,0,0,0,0,0,0,0,-0.3323,-0.3325,-0.3343,-0.3344,-0.3346,-0.3362,-0.3352,-0.3363,-0.3377,-0.3366,-0.3379,-0.338,-0.3386,-0.3388,-0.339,-0.3389,-0.339,-0.34,-0.34,-0.3401,-0.3401,0,0,0,0,0,0,0,-0.3323,-0.3324,-0.3337,-0.3343,-0.3345,-0.3352,-0.3354,-0.3354,-0.3372,-0.3367,-0.3369,-0.3371,-0.3387,-0.339,-0.3391,-0.339,-0.34,-0.3401,-0.3401,-0.3401,-0.338,-0.338,0,0,0,0,0,0,-0.3319,-0.3323,-0.3337,-0.3338,-0.3336,-0.3351,-0.3354,-0.3356,-0.3372,-0.3375,-0.337,-0.3372,-0.3389,-0.3391,-0.3392,-0.3379,-0.3401,-0.3401,-0.3401,-0.3381,-0.338,-0.3379,0,0,0,0,0,0,-0.3319,-0.332,-0.3336,-0.3331,-0.3334,-0.3351,-0.3353,-0.3356,-0.3359,-0.3375,-0.3378,-0.337,-0.339,-0.3391,-0.3389,-0.338,-0.3401,-0.3401,-0.3382,-0.3381,-0.338,-0.3353,0,0,0,0,0,0,-0.3318,-0.332,-0.3316,-0.3331,-0.3334,-0.3332,-0.3352,-0.3356,-0.3359,-0.3362,-0.3375,-0.3378,-0.339,-0.3388,-0.3389,-0.338,-0.3401,-0.3382,-0.3381,-0.338,-0.3354,-0.3351,-0.3348,0,0,0,0,0,-0.3317,-0.3307,-0.3315,-0.3317,-0.3329,-0.3332,-0.3334,-0.3348,-0.3358,-0.3354,-0.3365,-0.3377,-0.3381,-0.3388,-0.3389,-0.338,-0.3383,-0.3382,-0.338,-0.3356,-0.3352,-0.3348,0,0,0,0,0,0,-0.329,-0.3309,-0.3319,-0.3313,-0.3321,-0.3336,-0.3332,-0.3343,-0.3348,-0.335,-0.3368,-0.3371,-0.3366,-0.3373,-0.338,-0.337,-0.3384,-0.3382,-0.3365,-0.3361,-0.3358,-0.3356,-0.3401,0,0,0,0,0,-0.3283,-0.3284,-0.3301,-0.3294,-0.3298,-0.3314,-0.3316,-0.3327,-0.3335,-0.3339,-0.3349,-0.3357,-0.3359,-0.3361,-0.3364,-0.3356,-0.3359,-0.3351,-0.3347,-0.3345,-0.3343,-0.3339,-0.3335,-0.3374,-0.3374,-0.3374,0,0,-0.3269,-0.328,-0.3279,-0.3289,-0.3296,-0.3297,-0.3316,-0.3316,-0.3317,-0.3339,-0.3337,-0.3345,-0.3354,-0.3349,-0.3347,-0.3354,-0.3333,-0.3343,-0.334,-0.334,-0.3337,-0.3333,-0.333,-0.3373,-0.3373,-0.3374,0,0,-0.3243,-0.3252,-0.3247,-0.3254,-0.3265,-0.3276,-0.3275,-0.3289,-0.3296,-0.3294,-0.3311,-0.3312,-0.3316,-0.3322,-0.3326,-0.3304,-0.3316,-0.3305,-0.3287,-0.3283,-0.328,-0.3277,-0.3269,-0.3266,-0.3303,-0.3303,-0.3303,0,-0.3224,-0.3226,-0.3243,-0.3242,-0.3246,-0.3266,-0.3261,-0.3267,-0.3279,-0.3281,-0.3289,-0.3296,-0.3304,-0.33,-0.3294,-0.3297,-0.3296,-0.3303,-0.3279,-0.3277,-0.3275,-0.3267,-0.3264,-0.3302,-0.3302,-0.3302,-0.3302,0,-0.3202,-0.3203,-0.3198,-0.3209,-0.3212,-0.3209,-0.3226,-0.3227,-0.3238,-0.3248,-0.3246,-0.3257,-0.3263,-0.3263,-0.3273,-0.3261,-0.3265,-0.3276,-0.3291,-0.3269,-0.3262,-0.326,-0.3299,-0.33,-0.33,-0.3301,0,0,-0.3159,-0.318,-0.3177,-0.3183,-0.3197,-0.3198,-0.3196,-0.3203,-0.3203,-0.3211,-0.3209,-0.3213,-0.3224,-0.3228,-0.3239,-0.3236,-0.3217,-0.3248,-0.3248,-0.3241,-0.3204,-0.3195,-0.3192,-0.3226,-0.3225,-0.3225,-0.3203,0,-0.3135,-0.3134,-0.3149,-0.3143,-0.3144,-0.3164,-0.3162,-0.3171,-0.318,-0.3182,-0.3193,-0.3195,-0.3209,-0.3212,-0.3209,-0.322,-0.321,-0.3222,-0.3224,-0.3224,-0.3221,-0.3188,-0.3179,-0.3158,-0.3201,-0.32,-0.32,0,-0.3108,-0.3114,-0.3108,-0.3123,-0.3124,-0.3122,-0.313,-0.3132,-0.3142,-0.3149,-0.3154,-0.3167,-0.3167,-0.3181,-0.318,-0.3187,-0.319,-0.3195,-0.3195,-0.3195,-0.321,-0.3187,-0.3151,-0.3148,-0.3196,-0.3196,-0.3197,0,-0.3077,-0.3084,-0.3081,-0.3085,-0.3103,-0.3101,-0.3108,-0.3119,-0.3122,-0.3128,-0.313,-0.3136,-0.3139,-0.3144,-0.3158,-0.3167,-0.3155,-0.3171,-0.3161,-0.3161,-0.3157,-0.3157,-0.3121,-0.3159,-0.3159,-0.3159,-0.3159,0,-0.3049,-0.3044,-0.3068,-0.3066,-0.3061,-0.3079,-0.3075,-0.3084,-0.3093,-0.3093,-0.3111,-0.3111,-0.313,-0.3132,-0.3144,-0.3141,-0.3142,-0.3148,-0.3151,-0.3146,-0.3145,-0.3147,-0.3149,-0.3158,-0.3159,-0.3159,-0.3159,0,-0.3013,-0.3028,-0.3027,-0.3043,-0.3048,-0.3044,-0.3058,-0.3057,-0.3068,-0.3068,-0.3069,-0.3086,-0.309,-0.3105,-0.3112,-0.3119,-0.3113,-0.3119,-0.3109,-0.3111,-0.31,-0.3101,-0.3064,-0.306,-0.3101,-0.31,-0.31,0,-0.2994,-0.2991,-0.3008,-0.3009,-0.3016,-0.3018,-0.3022,-0.3039,-0.3042,-0.3054,-0.3051,-0.3056,-0.3061,-0.3065,-0.3078,-0.3084,-0.309,-0.3076,-0.3091,-0.3086,-0.3089,-0.3089,-0.3089,-0.3073,-0.3073,-0.3072,-0.3072,0,-0.2959,-0.2967,-0.2971,-0.2978,-0.2981,-0.2988,-0.2995,-0.2995,-0.3015,-0.3017,-0.3021,-0.3025,-0.3032,-0.3037,-0.3045,-0.3052,-0.3065,-0.3067,-0.3065,-0.306,-0.3055,-0.3057,-0.3101,-0.3068,-0.3068,-0.3069,-0.3069,-0.3069,-0.293,-0.2929,-0.294,-0.2945,-0.2952,-0.2959,-0.2959,-0.297,-0.2974,-0.2981,-0.2992,-0.2994,-0.3005,-0.3017,-0.3023,-0.3025,-0.3032,-0.3029,-0.3029,-0.3028,-0.3025,-0.3055,-0.3026,-0.3027,-0.3027,-0.3027,-0.3027,0,-0.2896,-0.2904,-0.2908,-0.2918,-0.2922,-0.2934,-0.2943,-0.2945,-0.2947,-0.2956,-0.2961,-0.2965,-0.297,-0.2984,-0.299,-0.2989,-0.2995,-0.299,-0.299,-0.2991,-0.3018,-0.3019,-0.2985,-0.2985,-0.2985,-0.2985,-0.2985,-0.2985,-0.2878,-0.2876,-0.2886,-0.2888,-0.2896,-0.2899,-0.2903,-0.2909,-0.2917,-0.2921,-0.2925,-0.2934,-0.2945,-0.2952,-0.2957,-0.2961,-0.2962,-0.2955,-0.296,-0.2985,-0.2989,-0.2993,-0.2994,-0.2955,-0.2955,-0.2933,-0.2933,-0.2933]}]]